Location: Sungai Igah
(2.7333°N, 114.2500°E)
Time: 03:22:33
(UTC+00:00)

Cosmos 1515 Rocket - Pass Details

Date: 14 June 2021
Orbit: 607 x 629 km, 82.5° (Epoch: 02 August)

Event Time Altitude Azimuth Distance (km) Brightness Sun altitude
Rises 20:51:58 0° 352° (N) 2,891 7.2 -19.7°
Reaches altitude 10° 20:54:11 10° 350° (N) 1,990 6.3 -19.2°
Maximum altitude 20:58:34 72° 267° (W) 662 3.4 -18.2°
Drops below altitude 10° 21:03:00 10° 182° (S) 2,004 5.9 -17.3°
Enters shadow 21:03:30 - 182° (S) 2,203 6.1 -17.1°
